This is the latest recevied weather packets stored in our database for station/object W5ITZ. If no packets are shown the sender has not sent any weather packets the latest 10 day(s).
| Time | Temp. | Humidity | Pressure | Rain* | Wind** | Luminosity | Snow |
|---|---|---|---|---|---|---|---|
| 1777851927 | 23.33° C | 50% | 1018.4 hPa | 0 mm | - | 113 W/m² | - |
| 1777851626 | 23.33° C | 48% | 1018.3 hPa | 0 mm | - | 133 W/m² | - |
| 1777851321 | 23.89° C | 50% | 1018.3 hPa | 0 mm | - | 150 W/m² | - |
| 1777851017 | 23.89° C | 47% | 1018.3 hPa | 0 mm | - | 168 W/m² | - |
| 1777850714 | 23.89° C | 48% | 1018.6 hPa | 0 mm | - | 190 W/m² | - |
| 1777850412 | 23.89° C | 47% | 1018.5 hPa | 0 mm | - | 216 W/m² | - |
| 1777850110 | 23.89° C | 48% | 1018.6 hPa | 0 mm | - | 244 W/m² | - |
| 1777849806 | 23.89° C | 48% | 1018.6 hPa | 0 mm | - | 273 W/m² | - |
| 1777849503 | 23.89° C | 47% | 1018.4 hPa | 0 mm | - | 291 W/m² | - |
| 1777849200 | 24.44° C | 45% | 1018.6 hPa | 0 mm | - | 155 W/m² | - |
| 1777848897 | 24.44° C | 48% | 1018.8 hPa | 0 mm | - | 285 W/m² | - |
| 1777848592 | 24.44° C | 48% | 1018.5 hPa | 0 mm | - | 317 W/m² | - |
| 1777848290 | 24.44° C | 46% | 1018.6 hPa | 0 mm | - | 349 W/m² | - |
| 1777847988 | 24.44° C | 44% | 1018.7 hPa | 0 mm | - | 367 W/m² | - |
| 1777847685 | 24.44° C | 48% | 1018.9 hPa | 0 mm | - | 388 W/m² | - |
| 1777847381 | 25° C | 45% | 1018.8 hPa | 0 mm | - | 412 W/m² | - |
| 1777847079 | 24.44° C | 48% | 1018.7 hPa | 0 mm | - | 447 W/m² | - |
| 1777846777 | 24.44° C | 49% | 1018.9 hPa | 0 mm | - | 493 W/m² | - |
| 1777846475 | 25° C | 48% | 1018.9 hPa | 0 mm | - | 298 W/m² | - |
| 1777846172 | 25° C | 49% | 1018.8 hPa | 0 mm | - | 515 W/m² | - |
| 1777845868 | 25° C | 47% | 1018.9 hPa | 0 mm | - | 462 W/m² | - |
| 1777845565 | 25° C | 48% | 1018.9 hPa | 0 mm | - | 526 W/m² | - |
| 1777845262 | 25° C | 46% | 1018.7 hPa | 0 mm | - | 554 W/m² | - |
| 1777844960 | 25° C | 47% | 1019.1 hPa | 0 mm | - | 578 W/m² | - |
| 1777844657 | 25° C | 47% | 1018.9 hPa | 0 mm | - | 567 W/m² | - |
* Rain latest hour (hover to see other rain measurements)
** Current wind speed in m/s (hover to see current wind gust speed)